Location: Kalberh�ni
(46.4610°N, 7.2453°E)
Time: 18:17:06
(UTC+00:00)

Meteor 2-1 Rocket - Pass Details

Date: 30 October 2021
Orbit: 830 x 906 km, 81.3° (Epoch: 28 November)

Event Time Altitude Azimuth Distance (km) Brightness Sun altitude
Rises 17:13:02 0° 146° (SE) 3,403 7.1 -9.8°
Reaches altitude 10° 17:16:05 10° 129° (SE) 2,461 6.2 -10.4°
Maximum altitude 17:19:56 20° 85° (E) 1,873 5.4 -11.0°
Drops below altitude 10° 17:23:46 10° 41° (NE) 2,452 6.2 -11.7°
Sets 17:26:47 0° 25° (NNE) 3,387 7.0 -12.2°
